Hourly Data Report for April 26, 2021

OTTAWA INTL A
ONTARIO
Current Station Operator: NAVCAN

45°19'00.000" N
75°40'00.000" W
114.90 m
6106001
71628
YOW

Download Data

Hourly Data (April 2021)
Hourly Data Report for April 26, 2021
TIME
LST
Temp Definition
°C
Dew Point Definition
°C
Rel Hum Definition
%
Precip. Amount Definition
mm

Wind Dir Definition
10's deg

Wind Spd Definition
km/h
Visibility Definition
km
Stn Press Definition
kPa
Hmdx Definition


Wind Chill Definition


Weather Definition


00:00 0.2 -7.9 55   32 36 24.1 100.12     LegendNANA
01:00 -0.4 -7.9 57   31 29 24.1 100.18   -7 Cloudy
02:00 -0.6 -8.0 58   30 28 24.1 100.22   -7 LegendNANA
03:00 -0.8 -8.5 56   30 27 24.1 100.29   -7 LegendNANA
04:00 -1.0 -8.0 59   31 27 24.1 100.35   -7 Mostly Cloudy
05:00 -1.2 -8.8 57   30 35 24.1 100.40   -9 LegendNANA
06:00 -1.4 -8.6 58   31 28 24.1 100.47   -8 LegendNANA
07:00 -1.0 -8.4 57   30 27 24.1 100.53   -7 Mainly Clear
08:00 0.6 -7.8 54   28 22 24.1 100.56     LegendNANA
09:00 1.9 -7.5 50   32 29 24.1 100.57     LegendNANA
10:00 3.1 -7.4 46   29 30 24.1 100.58     Mainly Clear
11:00 5.4 -6.0 44   30 22 24.1 100.58     LegendNANA
12:00 6.8 -7.6 35   32 35 24.1 100.52     LegendNANA
13:00 8.5 -8.4 29   27 24 24.1 100.50     Clear
14:00 9.5 -11.2 22   26 30 24.1 100.46     LegendNANA
15:00 10.3 -12.9 18   29 22 24.1 100.38     LegendNANA
16:00 11.1 -13.3 17   31 28 24.1 100.41     Mainly Clear
17:00 10.7 -13.2 17   30 23 24.1 100.42     LegendNANA
18:00 9.7 -13.9 18   31 28 24.1 100.45     LegendNANA
19:00 7.5 -12.6 23   31 18 24.1 100.45     Mainly Clear
20:00 6.4 -12.2 25   28 10 24.1 100.52     LegendNANA
21:00 5.0 -10.1 33   24 7 24.1 100.54     LegendNANA
22:00 3.1 -8.6 42   28 9 24.1 100.52     Mainly Clear
23:00 2.6 -7.9 46   27 5 24.1 100.45     LegendNANA

Notes on Data Quality.

Legend

  • E = Estimated
  • M = Missing
  • NA = Not Available*
  • [empty] = Indicates an unobserved value
Date modified: